Regional Weather Roundup
Issued by NWS

Home | Current Version | Previous Version | Text Only | Print | Product List | Glossary Off
Versions: 1 2 3 4 5 6 7 8 9 10 11 12 13 14 15 16 17 18 19 20 21 22 23 24 25 26 27 28 29 30 31 32 33 34 35 36 37 38 39 40 41 42 43 44 45 46 47 48 49 50

000
ASUS45 KTFX 250919
RWRMT
MONTANA HOURLY WEATHER ROUNDUP
NATIONAL WEATHER SERVICE GREAT FALLS MT
219 AM MST THU DEC 25 2014

NOTE: "FAIR" INDICATES FEW OR NO CLOUDS BELOW 12000 FEET WITH NO
SIGNIFICANT WEATHER AND/OR OBSTRUCTIONS TO VISIBILITY.

* THESE STATIONS ARE NOT UNDER NWS QUALITY CONTROL. THEY DO NOT
   REPORT WEATHER SUCH AS PRECIPITATION OR FOG.

MTZ001>007-043-251000-
WEST OF THE DIVIDE
CITY           SKY/WX    TMP DP  RH WIND       PRES   REMARKS
KALISPELL      CLOUDY    30  27  89 NE5       29.74R WCI  25
MISSOULA       LGT SNOW  30  30 100 NW8       29.70R VSB 1    WCI  22
BUTTE          CLOUDY    27  19  72 NW14      29.53R WCI  16
MULLAN PASS    HAZE      25  19  78 N6        29.65R VSB 3/4  WCI  18
* HAMILTON APT CLOUDY    30  30 100 CALM      29.65R VSB 2 1/2
* LIBBY APT    PTCLDY    28  28 100 CALM      29.80R VSB 2
* LINCOLN      N/A       25  21  85 E6G12      N/A   WCI  18
* LOOKOUT PASS N/A       26  25  96 N8         N/A   WCI  18
* POLSON       N/A       28  27  96 SE1        N/A
* RONAN APT    CLOUDY    32  27  82 N7         N/A   WCI  25
* SEELEY LAKE  N/A       28  27  96 N/A        N/A
* THOMP F APT  PTCLDY    24  20  85 NE3G8      N/A
$$

MTZ008-052>055-251000-
SOUTHWEST MONTANA
CITY           SKY/WX    TMP DP  RH WIND       PRES   REMARKS
BOZEMAN        CLOUDY    28  27  96 NW6       29.51R WCI  21
DILLON         LGT SNOW  27  25  92 NE8       29.48R VSB 2 1/2 WCI  19
* W YELLOWSTON CLOUDY    21  19  92 N/A        N/A
* THREE FORKS  CLOUDY    30   5  34 N13G18     N/A   WCI  20
* BOULDER HILL N/A       23  20  88 N20G28     N/A   WCI   8
* MONIDA PASS  N/A       22  22 100 NW16       N/A   WCI   8
* RAYNOLDS PAS N/A       22 -20  14 N12        N/A   WCI  10
* WHITEHALL    N/A       29  24  82 N11G19     N/A   WCI  19
* WISE RIVER   N/A       25  20  81 NW8G13     N/A   WCI  16
$$

MTZ009>010-012-014-046-048-049-054-251000-
EAST SLOPES AND CENTRAL MONTANA
CITY           SKY/WX    TMP DP  RH WIND       PRES   REMARKS
CUT BANK       CLOUDY    23  18  81 N13       29.73R WCI  11
GREAT FALLS    N/A       25  23  92 N9        29.71R WCI  16
HELENA         CLOUDY    28  23  81 NW13      29.64R WCI  17
MALMSTROM AFB  CLOUDY    25  25 100 NW6       29.73R WCI  18
* CONRAD       CLOUDY    27  25  92 W12        N/A   WCI  16
* DEARBORN     N/A       28  27  96 VRB10G17    N/A   WCI  19
* EAST GLACIER N/A       20  15  81 NE4        N/A
* PENDROY      N/A       23  22  96 NW11G17    N/A   WCI  12
* ROGERS PASS  N/A       20  18  92 S6G11      N/A   WCI  12
* SWEET GRASS  N/A       22  20  92 VRB15      N/A   WCI   9
* WHITE SULPH  N/A       26  24  92 N6G12      N/A   WCI  19
$$

MTZ011-013-016-021-035-040-045-047-050-051-251000-
NORTH CENTRAL MONTANA
CITY           SKY/WX    TMP DP  RH WIND       PRES   REMARKS
HAVRE          CLOUDY    27  21  78 NW6       29.73R WCI  20
LEWISTOWN      CLOUDY    27  23  85 NW6       29.63R WCI  20
* N BAR RANCH  CLOUDY    27  23  85 N7        29.62R WCI  19
* CHINOOK      PTCLDY    23  19  85 W5        29.73R WCI  16
* CHESTER      N/A       25  19  78 W2G9       N/A
* DENTON       N/A       26  25  96 W7         N/A   WCI  18
* JUDITH GAP   N/A       24  24 100 N24G30     N/A   WCI   8
* LOMA         N/A       27  23  85 NW11       N/A   WCI  17
$$

MTZ017>020-022>027-061-062-251000-
NORTHEAST MONTANA
CITY           SKY/WX    TMP DP  RH WIND       PRES   REMARKS
GLASGOW        CLOUDY    28  21  75 NW10      29.65R WCI  19
GLENDIVE       PTCLDY    27  21  78 N12       29.63R WCI  16
JORDAN         CLOUDY    28  25  89 N16       29.63R WCI  16
SIDNEY         MOCLDY    25  19  78 W9        29.64R WCI  16
WOLF POINT     CLOUDY    25  19  78 W7        29.65R WCI  17
* BEAVER HILL  N/A       24  22  92 NW8        N/A   WCI  15
* CIRCLE       N/A       28  24  85 NW6        N/A   WCI  21
* LINDSAY DVD  N/A       25  23  92 NW21       N/A   WCI  10
* NAVAJO       N/A       25  23  92 NW13G22    N/A   WCI  13
* PLENTYWOOD A MOCLDY    27  25  92 NW17      29.59R WCI  14
* POPLAR APT   MOCLDY    25  19  78 N/A       29.64R
* SACO         N/A       29  23  78 NW12G17    N/A   WCI  19
$$

MTZ028>042-056>058-251000-
SOUTHCENTRAL AND SOUTHEAST MONTANA
CITY           SKY/WX    TMP DP  RH WIND       PRES   REMARKS
BAKER          CLOUDY    28  25  89 N5        29.56R WCI  22
BILLINGS       LGT SNOW  30  28  92 NE15      29.58R VSB 1 1/2 WCI  19
LIVINGSTON     LGT SNOW  28  25  89 E21G30    29.54R VSB 1    WCI  14
MILES CITY     CLOUDY    30  27  89 N9        29.59R WCI  22
* BIG TIMBER A CLOUDY    27  27 100 NE9       29.59R VSB 3/4  WCI  18
* FORSYTH APT  CLOUDY    30  30 100 NW3       29.61R
* LAUREL APT   CLOUDY    30  18  61 N10G18     N/A   WCI  21
* ROUNDUP APT  CLOUDY    28  25  89 N10G17     N/A   WCI  19
* ALZADA       N/A       30  28  92 NE8        N/A   WCI  22
* REED POINT   N/A       30  29  96 NE6G11     N/A   WCI  24
* ROSCOE HILL  N/A       25  22  88 N14        N/A   WCI  13
$$

REGIONAL REPORTS...DAKOTAS
CITY           SKY/WX    TMP DP  RH WIND       PRES   REMARKS
WILLISTON      CLOUDY    25  19  78 VRB3      29.60R
DICKINSON      CLOUDY    27  23  85 NW8       29.53R WCI  19
BEACH          CLOUDY    23  23 100 NW8       29.59R WCI  14
CROSBY         CLOUDY    28  28 100 NW14      29.58R WCI  17
TIOGA          CLOUDY    23  23 100 NW9       29.58R WCI  13
WATFORD CITY   CLOUDY    25  23  92 NW7       29.57R WCI  17
BISMARCK       CLOUDY    27  25  92 CALM      29.55R
GRAND FORKS    CLOUDY    28  25  89 NW8       29.50R WCI  20
FARGO          MOCLDY    27  25  92 SW7       29.51R WCI  19
BUFFALO SD     CLOUDY    30  28  92 N10       29.47R WCI  21
RAPID CITY     LGT SNOW  30  28  92 N10       29.49R WCI  21
$$

REGIONAL REPORTS...WYOMING/IDAHO/WASHINGTON
CITY           SKY/WX    TMP DP  RH WIND       PRES   REMARKS
GILLETTE       CLOUDY    28  25  89 N14       29.43R WCI  17
SHERIDAN       LGT SNOW  30  28  92 N5        29.51R VSB 2 1/2 WCI  25
CODY           CLOUDY    28  25  89 N10       29.46R VSB 3    WCI  19
YELLOWSTONE LA CLOUDY    21  19  92 CALM      29.37S
SALMON         CLOUDY    30  21  69 CALM      29.56R
MULLAN PASS    HAZE      25  19  78 N6        29.65S VSB 3/4  WCI  18
SAND POINT     MOCLDY    30  30 100 CALM      29.83R
SPOKANE        CLEAR     27  27 100 W5        29.82R WCI  21
$$

REGIONAL REPORTS...ALBERTA
CITY           SKY/WX    TMP DP  RH WIND       PRES   REMARKS
CALGARY        MOCLDY    25  19  78 NW5       29.75R WCI  19
LETHBRIDGE     CLOUDY    27  23  85 NW10      29.78R WCI  18
MEDICINE HAT   CLOUDY    25  23  92 NW15      29.79R WCI  13
EDMONTON       MOCLDY     7   5  91 NW3       29.85R
WATERTON GATE  N/A       16  14  92 NE1        N/A
CARDSTON       N/A       25  23  92 NW5        N/A   WCI  19
MILK RIVER     N/A       23  21  92 N9         N/A   WCI  13
$$

REGIONAL REPORTS...SASKATCHEWAN
CITY           SKY/WX    TMP DP  RH WIND       PRES   REMARKS
SWIFT CURRENT  CLOUDY    23  21  92 NW20G26   29.66R WCI   8
REGINA         LGT SNOW  23  21  92 NW17      29.61R WCI   9
VAL MARIE      N/A       25  21  85 N16G22     N/A   WCI  12
ASSINIBOIA     N/A       23  21  92 NW20       N/A   WCI   8
CORONACH       N/A       27  23  85 NW21G28    N/A   WCI  13

$$



USA.gov is the U.S. government's official web portal to all federal, state and local government web resources and services.